Regional Weather Roundup
Issued by NWS

Home | Current Version | Previous Version | Text Only | Print | Product List | Glossary On
Versions: 1 2 3 4 5 6 7 8 9 10 11 12 13 14 15 16 17 18 19 20 21 22 23 24 25 26 27 28 29 30 31 32 33 34 35 36 37 38 39 40 41 42 43 44 45 46 47 48 49 50
000
ASUS43 KIND 281209
RWRIN

WEATHER ROUNDUP FOR INDIANA
NATIONAL WEATHER SERVICE INDIANAPOLIS IN
800 AM EDT THU JUL 28 2016

NOTE: "FAIR" INDICATES FEW OR NO CLOUDS BELOW 12,000 FEET WITH NO
SIGNIFICANT WEATHER AND/OR OBSTRUCTIONS TO VISIBILITY.

* - STATION DOES NOT REPORT WEATHER SUCH AS PRECIPITATION OR FOG.

+ - STATION NOT QUALITY CONTROLLED BY THE NATIONAL WEATHER SERVICE.
    USE DATA WITH CAUTION...ESPECIALLY DEWPOINT AND RELATIVE
    HUMIDITY OBSERVATIONS.

INZ001>003-010>013-019-020-281300-
NORTHWEST INDIANA

CITY           SKY/WX    TMP DP  RH WIND       PRES   REMARKS
GARY /AIRPORT/ PTSUNNY   72  72 100 SE3       29.92R
KNOX *+        CLOUDY    64  64 100 CALM      29.92S
LA PORTE +     MOSUNNY   72  72 100 CALM      29.94R
MICHIGAN CITY+ MOSUNNY   66  66 100 CALM      29.93S
MONTICELLO +   PTSUNNY   69  65  88 CALM      29.91S
6HR MIN TEMP:  66; 6HR MAX TEMP:  69;

RENSSELAER +   CLOUDY    68  68 100 CALM      29.92S FOG
VALPARAISO     PTSUNNY   69  67  93 NE3       29.93R
6HR MIN TEMP:  65; 6HR MAX TEMP:  70;


$$

LMZ046-743>745-281300-
SOUTHERN LAKE MICHIGAN

STATION/POSITION TIME  TEMP    WIND        PRES    WAVE
                       AIR SEA DIR/SP/G            HT
                 (UTC) (F)     (DEG/KT/KT) (MB)    (FT)
BURNS HARBOR     1102   72     190/  4/  6 1013.2S
MICHIGAN CITY    1100   71     120/  6/  7   N/A
5NW MICH CITY    1200   75 77  140/  4/  4   N/A     0

$$

INZ004-005-014>016-021>024-281300-
NORTH CENTRAL INDIANA

CITY           SKY/WX    TMP DP  RH WIND       PRES   REMARKS
ELKHART        MOSUNNY   70  68  94 CALM      29.94R
GOSHEN         CLOUDY    68  63  84 NE3       29.94R
6HR MIN TEMP:  65; 6HR MAX TEMP:  70;

LOGANSPORT +   CLOUDY    68  66  94 CALM      29.93S FOG
PERU/GRISSOM   CLOUDY    69  69  99 CALM      29.91R
6HR MIN TEMP:  68; 6HR MAX TEMP:  74;

ROCHESTER +    CLOUDY    72  70  94 NE3       29.93S
SOUTH BEND     MOSUNNY   71  67  87 E3        29.93R
6HR MIN TEMP:  65; 6HR MAX TEMP:  71;

WARSAW +       PTSUNNY   68  64  88 CALM      29.93S

$$

INZ006>009-017-018-025>027-281300-
NORTHEAST INDIANA

CITY           SKY/WX    TMP DP  RH WIND       PRES   REMARKS
ANGOLA *+        N/A     66  66 100 CALM      29.94R
AUBURN +       PTSUNNY   70  63  78 CALM      29.93S
FORT WAYNE     CLOUDY    70  65  84 N3        29.93R
6HR MIN TEMP:  67; 6HR MAX TEMP:  72;

HUNTINGTON +   CLOUDY    68  67  95 CALM      29.92S
6HR MIN TEMP:  66; 6HR MAX TEMP:  71;


$$

INZ028-029-035-036-043>045-051>053-281300-
WEST CENTRAL INDIANA

CITY           SKY/WX    TMP DP  RH WIND       PRES   REMARKS
CRAWFORDSVL +  MOSUNNY   69  69 100 CALM      29.92S
6HR MIN TEMP:  66; 6HR MAX TEMP:  70;

GREENCASTLE +  CLOUDY    70  70 100 CALM      29.93R
LAFAYETTE      CLOUDY    70  69  97 CALM      29.91S
6HR MIN TEMP:  66; 6HR MAX TEMP:  70;

TERRE HAUTE    PTSUNNY   74  72  93 CALM      29.91S FOG
6HR MIN TEMP:  73; 6HR MAX TEMP:  75;


$$

INZ030>032-037>040-046>048-054>057-064-065-281300-
CENTRAL INDIANA

CITY           SKY/WX    TMP DP  RH WIND       PRES   REMARKS
COLUMBUS       LGT RAIN  72  72 100 CALM      29.92F FOG
FISHERS *+     CLOUDY    70  70 100 CALM      29.93R
INDIANAPOLIS   CLOUDY    74  69  85 W5        29.92F
6HR MIN TEMP:  73; 6HR MAX TEMP:  79;

-EAGLE CREEK   CLOUDY    74  68  81 CALM      29.92R
6HR MIN TEMP:  73; 6HR MAX TEMP:  78;

KOKOMO *+      CLOUDY    70  63  78 S3        29.92S
6HR MIN TEMP:  66; 6HR MAX TEMP:  72;

MARION +       CLOUDY    67  66  98 CALM      29.94R FOG
MT COMFORT *+  CLOUDY    70  68  94 CALM      29.94R
SHELBYVILLE    CLOUDY    73  70  90 SW3       29.92R
6HR MIN TEMP:  73; 6HR MAX TEMP:  77; 6HR PCP: TRACE;

ZIONSVILLE +   PTSUNNY   68  67  97 CALM      29.94R
6HR MIN TEMP:  66; 6HR MAX TEMP:  71;


$$

INZ033-034-041-042-049-050-058-059-281300-
EAST CENTRAL INDIANA

CITY           SKY/WX    TMP DP  RH WIND       PRES   REMARKS
MUNCIE         CLOUDY    72  68  87 CALM      29.93R
6HR MIN TEMP:  69; 6HR MAX TEMP:  75;


$$

INZ060-061-067>069-081>083-085>088-281300-
SOUTHWEST INDIANA

CITY           SKY/WX    TMP DP  RH WIND       PRES   REMARKS
EVANSVILLE     CLOUDY    73  71  93 S6        29.92S
6HR MIN TEMP:  73; 6HR MAX TEMP:  75; 6HR PCP:  0.01;

HUNTINGBURG *+ CLOUDY    73  70  88 CALM      29.92S
6HR MIN TEMP:  73; 6HR MAX TEMP:  73;

WASHINGTON +   CLOUDY    73  73 100 MISG      29.91S FOG
6HR MIN TEMP:  73; 6HR MAX TEMP:  75; 6HR PCP:  0.41;


$$

INZ062-063-066-070>080-084-089>092-281300-
SOUTH CENTRAL AND SOUTHEAST INDIANA

CITY           SKY/WX    TMP DP  RH WIND       PRES   REMARKS
BLOOMINGTON    CLOUDY    72  70  93 S3        29.93R
6HR MIN TEMP:  71; 6HR MAX TEMP:  75; 6HR PCP:  1.13;

MADISON *+     CLOUDY    72  70  94 S6        29.94S
NORTH VERNON + DRIZZLE  N/A N/A N/A CALM      29.93R
SEYMOUR +      LGT RAIN  72  72 100 W3        29.92R

$$




USA.gov is the U.S. government's official web portal to all federal, state and local government web resources and services.